Weather History for Mojave, CA

Change the Weather History Date:

Tuesday, October 8, 2013

  Actual Average Record
Temperature  
Mean Temperature 66 °F -  
Max Temperature 78 °F 80 °F 98 °F (1996)
Min Temperature 55 °F 52 °F 38 °F (1975)
Cooling Degree Days 2    
Growing Degree Days 16 (Base 50)    
Moisture  
Dew Point 29 °F    
Average Humidity 28    
Maximum Humidity 63    
Minimum Humidity 12    
Precipitation  
Precipitation 0.00 in - - ()
Sea Level Pressure  
Sea Level Pressure 29.84 in    
Wind  
Wind Speed 14 mph (WSW)    
Max Wind Speed 23 mph    
Max Gust Speed 31 mph    
Visibility 10 miles    
Events      
Averages and records for this station are not official NWS values.
T = Trace of Precipitation, MM = Missing Value Source: NWS Daily Summary

Daily Weather History Graph

Daily Weather History Graph

Search for Another Location

Airport:

Trip Planner

Search our weather history database for the weather conditions in past years. The results will help you decide how hot, cold, wet, or windy it might be!

Date:

Astronomy

Oct. 08, 2013 Rise Set
Actual Time 6:53 AM PDT 6:26 PM PDT
Civil Twilight 6:27 AM PDT 6:51 PM PDT
Nautical Twilight 5:58 AM PDT 7:21 PM PDT
Astronomical Twilight 5:29 AM PDT 7:50 PM PDT
Moon 10:43 AM PDT (10/8) 9:16 PM PDT (10/8)
Length of Visible Light 12h 23m
Length of Day
11h 33m
Waxing Crescent, 17% of the Moon is Illuminated
Oct 8
Waxing Crescent
Oct 11
First Quarter
Oct 18
Full
Oct 26
Last Quarter
Nov 3
New

Hourly Weather History & Observations

Time (PDT) Temp. Dew Point Humidity Pressure Visibility Wind Dir Wind Speed Gust Speed Precip Events Conditions
12:15 AM 64.4 °F 23.0 °F 21% 29.93 in 10.0 mi WSW 12.7 mph - N/A   Clear
12:35 AM 59.0 °F 23.0 °F 25% 29.93 in 10.0 mi WSW 11.5 mph - N/A   Clear
12:55 AM 62.6 °F 23.0 °F 22% 29.93 in 10.0 mi West 17.3 mph 20.7 mph N/A   Clear
1:15 AM 64.4 °F 23.0 °F 21% 29.93 in 10.0 mi West 15.0 mph 20.7 mph N/A   Clear
1:35 AM 64.4 °F 23.0 °F 21% 29.93 in 10.0 mi WSW 10.4 mph - N/A   Clear
1:55 AM 62.6 °F 21.2 °F 20% 29.93 in 10.0 mi SW 9.2 mph 25.3 mph N/A   Clear
2:15 AM 60.8 °F 21.2 °F 22% 29.93 in 10.0 mi SSW 4.6 mph - N/A   Clear
2:35 AM 59.0 °F 21.2 °F 23% 29.92 in 10.0 mi SW 6.9 mph - N/A   Clear
2:55 AM 60.8 °F 24.8 °F 25% 29.92 in 10.0 mi West 4.6 mph - N/A   Clear
3:15 AM 62.6 °F 26.6 °F 26% 29.92 in 10.0 mi WSW 10.4 mph - N/A   Clear
3:35 AM 62.6 °F 26.6 °F 26% 29.91 in 10.0 mi SW 13.8 mph 17.3 mph N/A   Clear
3:55 AM 62.6 °F 26.6 °F 26% 29.91 in 10.0 mi WSW 9.2 mph - N/A   Clear
4:15 AM 60.8 °F 26.6 °F 27% 29.90 in 10.0 mi SW 6.9 mph - N/A   Clear
4:35 AM 60.8 °F 26.6 °F 27% 29.90 in 10.0 mi SW 11.5 mph 17.3 mph N/A   Clear
4:55 AM 59.0 °F 26.6 °F 29% 29.89 in 10.0 mi SW 8.1 mph - N/A   Clear
5:15 AM 59.0 °F 26.6 °F 29% 29.90 in 10.0 mi WSW 6.9 mph - N/A   Clear
5:35 AM 59.0 °F 26.6 °F 29% 29.89 in 10.0 mi West 11.5 mph - N/A   Clear
5:55 AM 60.8 °F 26.6 °F 27% 29.89 in 10.0 mi West 15.0 mph - N/A   Clear
6:15 AM 60.8 °F 26.6 °F 27% 29.89 in 10.0 mi SW 17.3 mph - N/A   Clear
6:35 AM 60.8 °F 26.6 °F 27% 29.89 in 10.0 mi SW 13.8 mph - N/A   Clear
6:55 AM 59.0 °F 26.6 °F 29% 29.89 in 10.0 mi SW 16.1 mph - N/A   Clear
7:15 AM 59.0 °F 26.6 °F 29% 29.89 in 9.0 mi SW 16.1 mph - N/A   Clear
7:35 AM 62.6 °F 26.6 °F 26% 29.89 in 10.0 mi WSW 17.3 mph - N/A   Clear
7:55 AM 62.6 °F 26.6 °F 26% 29.89 in 10.0 mi SW 17.3 mph - N/A   Clear
8:15 AM 64.4 °F 26.6 °F 24% 29.89 in 10.0 mi SW 16.1 mph - N/A   Clear
8:35 AM 66.2 °F 28.4 °F 24% 29.89 in 9.0 mi West 19.6 mph - N/A   Clear
8:55 AM 68.0 °F 28.4 °F 23% 29.89 in 10.0 mi West 19.6 mph - N/A   Clear
9:15 AM 68.0 °F 28.4 °F 23% 29.90 in 9.0 mi West 19.6 mph 24.2 mph N/A   Clear
9:35 AM 69.8 °F 28.4 °F 21% 29.90 in 10.0 mi West 20.7 mph - N/A   Clear
9:55 AM 71.6 °F 26.6 °F 19% 29.89 in 10.0 mi West 18.4 mph - N/A   Clear
10:15 AM 73.4 °F 26.6 °F 18% 29.89 in 10.0 mi West 20.7 mph 25.3 mph N/A   Clear
10:35 AM 73.4 °F 23.0 °F 15% 29.89 in 10.0 mi West 20.7 mph 25.3 mph N/A   Clear
10:55 AM 75.2 °F 23.0 °F 14% 29.89 in 10.0 mi West 17.3 mph - N/A   Clear
11:15 AM 75.2 °F 23.0 °F 14% 29.89 in 10.0 mi West 17.3 mph - N/A   Clear
11:35 AM 75.2 °F 23.0 °F 14% 29.88 in 10.0 mi West 18.4 mph 21.9 mph N/A   Clear
11:55 AM 75.2 °F 23.0 °F 14% 29.87 in 10.0 mi WSW 19.6 mph 23.0 mph N/A   Clear
12:15 PM 75.2 °F 23.0 °F 14% 29.87 in 10.0 mi West 16.1 mph 20.7 mph N/A   Clear
12:35 PM 77.0 °F 23.0 °F 13% 29.86 in 10.0 mi WSW 15.0 mph 25.3 mph N/A   Clear
12:55 PM 77.0 °F 21.2 °F 12% 29.84 in 10.0 mi West 19.6 mph 23.0 mph N/A   Clear
1:15 PM 77.0 °F 21.2 °F 12% 29.83 in 10.0 mi West 17.3 mph 25.3 mph N/A   Clear
1:35 PM 77.0 °F 19.4 °F 12% 29.82 in 10.0 mi West 18.4 mph - N/A   Clear
1:55 PM 78.8 °F 23.0 °F 13% 29.82 in 10.0 mi West 18.4 mph - N/A   Clear
2:15 PM 77.0 °F 21.2 °F 12% 29.81 in 10.0 mi WNW 18.4 mph 26.5 mph N/A   Clear
2:35 PM 77.0 °F 21.2 °F 12% 29.80 in 10.0 mi WNW 23.0 mph 26.5 mph N/A   Clear
2:55 PM 77.0 °F 21.2 °F 12% 29.80 in 10.0 mi West 19.6 mph 26.5 mph N/A   Clear
3:15 PM 77.0 °F 21.2 °F 12% 29.79 in 10.0 mi West 23.0 mph 27.6 mph N/A   Clear
3:35 PM 77.0 °F 21.2 °F 12% 29.79 in 10.0 mi West 19.6 mph 24.2 mph N/A   Clear
3:55 PM 77.0 °F 23.0 °F 13% 29.78 in 10.0 mi West 20.7 mph 24.2 mph N/A   Clear
4:15 PM 75.2 °F 23.0 °F 14% 29.78 in 10.0 mi West 20.7 mph - N/A   Clear
4:35 PM 75.2 °F 23.0 °F 14% 29.77 in 10.0 mi West 20.7 mph - N/A   Clear
4:55 PM 75.2 °F 23.0 °F 14% 29.76 in 10.0 mi WSW 15.0 mph 24.2 mph N/A   Clear
5:15 PM 73.4 °F 23.0 °F 15% 29.76 in 10.0 mi SW 16.1 mph 24.2 mph N/A   Clear
5:35 PM 69.8 °F 41.0 °F 35% 29.76 in 10.0 mi SW 17.3 mph 28.8 mph N/A   Clear
5:55 PM 68.0 °F 44.6 °F 43% 29.76 in 10.0 mi SSW 19.6 mph 31.1 mph N/A   Clear
6:15 PM 66.2 °F 44.6 °F 46% 29.76 in 10.0 mi SSW 19.6 mph 25.3 mph N/A   Clear
6:35 PM 64.4 °F 44.6 °F 49% 29.76 in 10.0 mi SSW 17.3 mph 27.6 mph N/A   Clear
6:55 PM 64.4 °F 44.6 °F 49% 29.76 in 10.0 mi SW 18.4 mph - N/A   Clear
7:15 PM 62.6 °F 44.6 °F 52% 29.76 in 10.0 mi SW 19.6 mph 26.5 mph N/A   Clear
7:35 PM 62.6 °F 42.8 °F 48% 29.76 in 10.0 mi SSW 16.1 mph 25.3 mph N/A   Clear
7:55 PM 62.6 °F 41.0 °F 45% 29.76 in 10.0 mi SSW 19.6 mph 24.2 mph N/A   Clear
8:15 PM 62.6 °F 39.2 °F 42% 29.76 in 10.0 mi SSW 11.5 mph 21.9 mph N/A   Clear
8:35 PM 60.8 °F 37.4 °F 42% 29.77 in 10.0 mi SSW 15.0 mph 19.6 mph N/A   Clear
8:55 PM 62.6 °F 33.8 °F 34% 29.77 in 10.0 mi SSW 13.8 mph - N/A   Clear
9:15 PM 60.8 °F 37.4 °F 42% 29.77 in 10.0 mi SSW 11.5 mph - N/A   Clear
9:35 PM 59.0 °F 41.0 °F 51% 29.76 in 10.0 mi South 17.3 mph - N/A   Clear
9:55 PM 57.2 °F 42.8 °F 59% 29.76 in 10.0 mi South 15.0 mph - N/A   Clear
10:15 PM 57.2 °F 41.0 °F 55% 29.75 in 10.0 mi SSW 11.5 mph - N/A   Clear
10:35 PM 57.2 °F 41.0 °F 55% 29.75 in 10.0 mi SSW 12.7 mph - N/A   Clear
10:55 PM 55.4 °F 42.8 °F 63% 29.75 in 10.0 mi SSW 11.5 mph - N/A   Clear
11:15 PM 55.4 °F 42.8 °F 63% 29.74 in 10.0 mi SW 10.4 mph - N/A   Clear
11:35 PM 55.4 °F 42.8 °F 63% 29.74 in 10.0 mi SSW 12.7 mph - N/A   Clear
11:55 PM 55.4 °F 41.0 °F 58% 29.74 in 10.0 mi SW 9.2 mph - N/A   Clear